Weather History for Providence, RI

Change the Weather History Date:

Sunday, November 4, 2012

  Actual Average Record
Temperature  
Mean Temperature 46 °F 48 °F  
Max Temperature 56 °F 57 °F 77 °F (1987)
Min Temperature 36 °F 39 °F 26 °F (1912)
Degree Days  
Heating Degree Days 19 17  
Month to date heating degree days 67 67  
Since 1 July heating degree days 411 525  
Cooling Degree Days 0 0  
Month to date cooling degree days 0 0  
Year to date cooling degree days 834 744  
Moisture  
Dew Point 31 °F    
Average Humidity 60    
Maximum Humidity 76    
Minimum Humidity 43    
Precipitation  
Precipitation 0.00 in 0.14 in 2.29 in (1955)
Month to date precipitation T 0.56  
Year to date precipitation 34.73 39.01  
Snow  
Snow 0.00 in 0.00 in 3.00 in (1945)
Month to date snowfall 0.0 0.0  
Since 1 July snowfall 0.0 0.0  
Since 1 September snowfall 0.0 0.0  
Snow Depth 0.00 in    
Sea Level Pressure  
Sea Level Pressure 29.89 in    
Wind  
Wind Speed 7 mph (NW)    
Max Wind Speed 17 mph    
Max Gust Speed 23 mph    
Visibility 10 miles    
Events      
T = Trace of Precipitation, MM = Missing Value Source: NWS Daily Summary

Daily Weather History Graph

Daily Weather History Graph

Search for Another Location

Airport:

Trip Planner

Search our weather history database for the weather conditions in past years. The results will help you decide how hot, cold, wet, or windy it might be!

Date:

Astronomy

Nov. 04, 2012 Rise Set
Actual Time 6:22 AM EST 4:35 PM EST
Civil Twilight 5:52 AM EST 5:05 PM EST
Nautical Twilight 5:19 AM EST 5:38 PM EST
Astronomical Twilight 4:47 AM EST 6:10 PM EST
Moon 9:10 PM EST (11/4) 11:04 AM EST (11/4)
Length of Visible Light 11h 12m
Length of Day
10h 13m
Waning Gibbous, 72% of the Moon is Illuminated
Nov 4
Waning Gibbous
Nov 6
Last Quarter
Nov 13
New
Nov 20
First Quarter
Nov 28
Full

Hourly Weather History & Observations

Time (EST) Temp. Windchill Dew Point Humidity Pressure Visibility Wind Dir Wind Speed Gust Speed Precip Events Conditions
12:51 AM 41.0 °F 35.8 °F 28.9 °F 62% 29.84 in 10.0 mi West 8.1 mph - N/A   Partly Cloudy
1:51 AM 39.0 °F 34.0 °F 28.9 °F 67% 29.84 in 10.0 mi West 6.9 mph - N/A   Clear
1:51 AM 39.0 °F 32.8 °F 28.9 °F 67% 29.84 in 10.0 mi WNW 9.2 mph - N/A   Clear
2:51 AM 37.9 °F 33.5 °F 28.9 °F 70% 29.84 in 10.0 mi WNW 5.8 mph - N/A   Clear
3:51 AM 37.9 °F 33.5 °F 28.9 °F 70% 29.85 in 10.0 mi West 5.8 mph - N/A   Partly Cloudy
4:51 AM 37.0 °F 30.4 °F 28.9 °F 73% 29.86 in 10.0 mi NW 9.2 mph - N/A   Partly Cloudy
5:51 AM 36.0 °F 31.1 °F 28.9 °F 76% 29.87 in 10.0 mi West 5.8 mph - N/A   Clear
6:51 AM 37.0 °F 31.6 °F 30.0 °F 76% 29.89 in 10.0 mi West 6.9 mph - N/A   Partly Cloudy
7:51 AM 42.1 °F 37.1 °F 30.9 °F 65% 29.90 in 10.0 mi NW 8.1 mph - N/A   Clear
8:51 AM 45.0 °F 39.7 °F 32.0 °F 60% 29.91 in 10.0 mi NW 10.4 mph - N/A   Clear
9:51 AM 48.0 °F - 33.1 °F 56% 29.90 in 10.0 mi NW 10.4 mph - N/A   Clear
10:51 AM 50.0 °F - 34.0 °F 54% 29.89 in 10.0 mi NW 8.1 mph - N/A   Partly Cloudy
11:51 AM 52.0 °F - 33.1 °F 49% 29.88 in - North 10.4 mph - N/A   Partly Cloudy
12:51 PM 54.0 °F - 34.0 °F 47% 29.87 in 10.0 mi Variable 3.5 mph - N/A   Partly Cloudy
1:51 PM 55.0 °F - 34.0 °F 45% 29.85 in 10.0 mi NW 8.1 mph - N/A   Partly Cloudy
2:51 PM 54.0 °F - 34.0 °F 47% 29.86 in 10.0 mi WNW 6.9 mph - N/A   Partly Cloudy
3:51 PM 53.1 °F - 33.1 °F 47% 29.87 in 10.0 mi WNW 6.9 mph - N/A   Scattered Clouds
4:51 PM 50.0 °F - 32.0 °F 50% 29.88 in 10.0 mi NW 5.8 mph - N/A   Scattered Clouds
5:51 PM 46.9 °F - 33.1 °F 59% 29.91 in 10.0 mi North 15.0 mph - N/A   Mostly Cloudy
6:51 PM 43.0 °F 36.0 °F 30.9 °F 62% 29.92 in 10.0 mi North 13.8 mph - N/A   Scattered Clouds
7:51 PM 42.1 °F 37.7 °F 30.0 °F 62% 29.95 in 10.0 mi North 6.9 mph - N/A   Scattered Clouds
8:51 PM 41.0 °F 39.0 °F 28.9 °F 62% 29.95 in 10.0 mi NW 3.5 mph - N/A   Partly Cloudy
9:51 PM 39.0 °F 36.8 °F 30.0 °F 70% 29.95 in 10.0 mi WNW 3.5 mph - N/A   Partly Cloudy
10:51 PM 37.9 °F - 28.9 °F 70% 29.94 in 10.0 mi Calm Calm - N/A   Partly Cloudy